Orbital Elements at Epoch 2459000.5 (2020-May-31.0) TDB
Reference: JPL 22 (heliocentric ecliptic J2000)
Element | Value | Uncertainty (1-sigma) | Units |
e | .1672517162867601 | 3.3298e-08 | |
a | 2.304873478327518 | 8.4423e-09 | au |
q | 1.919379433253406 | 7.9401e-08 | au |
i | 3.547690790096135 | 4.6728e-06 | deg |
node | 293.45893321 | 6.0429e-05 | deg |
peri | 90.22424168923787 | 6.2436e-05 | deg |
M | 29.73730570721979 | 1.4398e-05 | deg |
tp | 2458894.923276574186 (2020-Feb-15.42327657) | 5.1025e-05 | TDB |
period | 1278.112442583028 3.50 | 7.0222e-06 1.923e-08 | d yr |
n | .28166535901368 | 1.5475e-09 | deg/d |
Q | 2.69036752340163 | 9.8543e-09 | au |
|
| | Orbit Determination Parameters
Additional Information
|